Regional Weather Roundup
Issued by NWS

Home | Current Version | Previous Version | Graphics & Text | Print | Product List | Glossary On
Versions: 1 2 3 4 5 6 7 8 9 10 11 12 13 14 15 16 17 18 19 20 21 22 23 24 25 26 27 28 29 30 31 32 33 34 35 36 37 38 39 40 41 42 43 44 45 46 47 48 49 50
029
ASUS44 KMEG 081710
RWRTN
TENNESSEE HOURLY STATE WEATHER ROUNDUP
NATIONAL WEATHER SERVICE MEMPHIS TN
1100 AM CST THU DEC 08 2016

TNZ002-004-019-021-049-052-054-088>092-081800-
WEST TENNESSEE

CITY           SKY/WX    TMP DP  RH WIND       PRES   REMARKS
MEMPHIS INTL   PTSUNNY   36  16  44 N14       30.54S WCI  27
NWS MEMPHIS      N/A     36 N/A N/A MISG        N/A
JACKSON        SUNNY     35  22  58 NW16      30.51F WCI  25
DYERSBURG      MOSUNNY   32  16  51 N8        30.53S WCI  25
UNION CITY     SUNNY     30  14  51 NW10      30.50F WCI  21
PARIS          SUNNY     30  12  47 W8        30.48F WCI  23
HUNTINGDON     SUNNY     34  16  47 N10       30.48F WCI  26
LEXINGTON      SUNNY     36  18  48 NW8       30.46S WCI  29
$$

TNZ008-025-027-028-033-062-065-066-081800-
NORTH MIDDLE TENNESSEE

CITY           SKY/WX    TMP DP  RH WIND       PRES   REMARKS
NASHVILLE      CLOUDY    38  16  40 NW14      30.43F WCI  30
PORTLAND       SUNNY     34  18  51 NW12G18   30.41F WCI  25
CLARKSVILLE    MOSUNNY   34  12  40 NW13      30.46S WCI  25
SMYRNA         CLOUDY    39  19  44 N13       30.42F WCI  31
GALLATIN       SUNNY     36  19  51 NW12G17   30.44F WCI  27
CROSSVILLE     SUNNY     35  19  52 NW12      30.30F WCI  27
$$

TNZ061-075-076-078-094-096-097-081800-
SOUTH MIDDLE TENNESSEE

CITY           SKY/WX    TMP DP  RH WIND       PRES   REMARKS
FAYETTEVILLE   SUNNY     36  23  60 N10       30.40S WCI  28
TULLAHOMA      SUNNY     36  19  51 N12       30.37F WCI  27
WINCHESTER     SUNNY     36  21  55 N9        30.38S WCI  29
MCMINNVILLE    SUNNY     37  21  52 NW8         N/A  WCI  31
COLUMBIA       SUNNY     37  21  52 N12       30.41S WCI  30
SHELBYVILLE    SUNNY     39  25  56 NW10      30.40F WCI  32
$$

TNZ017-018-042-046-047-081800-
NORTHEAST TENNESSEE

CITY           SKY/WX    TMP DP  RH WIND       PRES   REMARKS
TRI CITIES     MOSUNNY   42  21  43 W13G21    30.20F
ELIZABETHTON   DRIZZLE   39  19  45 W12       30.19F WCI  32
$$

TNZ012-013-036-069-073-074-081800-
CENTRAL EAST TENNESSEE

CITY           SKY/WX    TMP DP  RH WIND       PRES   REMARKS
KNOXVILLE      PTSUNNY   43  23  45 W12       30.29F
OAK RIDGE      SUNNY     44  15  31 MISG      30.31F
DOWNTOWN KNOXV SUNNY     43  23  45 VRB7      30.31S
GATLINBURG     SUNNY     41  19  42 W10       30.28F
MORRISTOWN     MOSUNNY   39  21  48 NW10      30.26S WCI  32
JACKSBORO      SUNNY     37  19  48 VRB7G13   30.33F WCI  32
$$

TNZ083-085-099-081800-
SOUTHEAST TENNESSEE

CITY           SKY/WX    TMP DP  RH WIND       PRES   REMARKS
CHATTANOOGA    CLOUDY    43  19  38 NW12      30.36S
$$

SKY/WX REPORTED AS FAIR MEANS FEW OR NO CLOUDS BELOW
12 THOUSAND FEET.





USA.gov is the U.S. government's official web portal to all federal, state and local government web resources and services.